GFSSW_850_thetae_273.txt.gz
Theta_e
312 311 311 310 309 308 309 309 310 310 310 310 310 311 311 311 311 312 312 312 312 311 315 315 314 315 315 315 319 319 320 319 319 321 319 321 322 322 321 321 322 337 344 346 346
315 315 314 312 311 310 309 309 309 310 310 310 311 311 311 311 311 311 312 312 313 311 314 314 314 313 314 316 320 321 320 319 319 320 321 322 321 322 322 323 323 324 333 341 344
315 315 316 316 315 312 311 309 309 309 310 310 311 311 311 311 311 317 315 315 315 310 312 311 313 313 314 315 318 320 320 320 320 320 320 322 321 321 322 324 323 322 323 330 338
314 314 315 316 316 316 314 311 310 309 309 310 310 310 310 311 313 319 316 314 313 312 310 315 313 313 314 316 316 320 320 321 321 320 320 320 319 319 320 322 322 321 320 326 324
313 314 314 314 315 316 316 315 311 310 309 309 310 310 311 310 311 315 317 315 312 313 313 315 314 312 315 314 314 317 316 316 318 316 316 316 318 319 319 320 320 320 321 329 336
312 312 314 314 314 315 317 316 316 311 310 309 309 311 312 313 312 311 313 314 314 314 315 315 313 313 314 315 316 316 316 317 316 317 316 318 319 317 320 320 320 320 325 337 341
310 311 312 313 313 314 315 317 316 312 310 310 309 310 312 312 312 312 314 314 315 315 315 313 312 314 315 316 315 315 318 318 317 317 319 316 319 319 319 318 319 320 320 327 345
309 309 310 311 312 314 315 316 316 312 310 310 309 310 313 313 312 312 318 316 315 315 313 313 313 315 316 315 317 319 316 318 317 316 316 317 319 321 317 317 320 319 320 321 321
308 308 309 310 311 314 316 315 313 314 313 313 311 313 314 314 313 311 315 317 315 315 314 315 313 316 316 319 319 317 317 317 317 315 317 318 319 320 318 317 319 320 320 319 320
308 307 309 312 313 314 314 314 314 315 316 316 314 315 315 315 320 318 313 318 315 317 317 315 315 317 317 319 317 317 317 316 316 317 317 317 318 319 318 317 319 319 317 318 319
308 307 312 314 315 313 312 314 312 313 312 313 314 314 314 314 314 314 317 314 317 317 318 315 317 317 318 319 319 318 319 319 317 316 316 318 318 320 319 318 319 317 318 321 320
307 309 313 315 315 313 312 312 310 310 312 313 313 312 313 313 314 316 318 316 316 319 315 316 317 318 317 316 317 317 316 317 317 315 317 318 319 319 319 317 319 321 322 323 323
307 312 312 314 313 313 312 311 311 311 312 312 312 313 313 313 314 314 314 317 318 318 317 318 317 316 316 315 316 316 317 318 318 316 316 317 319 320 317 320 322 322 322 324 324
308 313 312 312 312 312 312 311 312 312 314 314 314 314 313 315 315 315 314 317 316 319 317 317 317 316 317 317 317 318 317 318 318 318 320 317 320 321 320 319 323 323 323 325 326
308 313 312 312 312 313 313 312 312 313 316 314 314 314 314 314 313 315 315 316 318 316 316 318 317 316 317 318 317 318 318 318 318 320 319 318 320 321 319 320 324 324 324 326 327
308 313 313 314 314 314 315 312 312 314 314 314 312 312 313 313 314 314 314 316 314 316 316 317 315 315 317 314 316 316 318 318 316 319 321 320 320 320 326 325 325 326 327 327 328
307 312 313 314 314 315 315 313 314 313 312 311 311 312 312 312 314 314 312 312 315 319 319 316 313 313 312 315 315 319 320 321 320 320 320 318 319 327 325 323 323 325 325 325 326
306 311 313 314 313 315 314 313 313 312 310 310 310 312 312 312 314 314 314 313 311 314 316 318 316 312 311 312 314 315 321 321 321 320 320 320 323 328 322 322 322 323 323 324 324
306 308 313 313 311 313 313 315 311 310 309 309 311 312 311 312 313 314 313 312 311 311 314 316 312 311 311 310 311 313 316 312 319 319 321 322 327 325 323 322 320 319 321 321 321
306 309 314 311 312 311 314 311 310 309 309 309 310 310 312 311 313 314 315 312 311 310 311 311 313 311 311 309 311 311 311 317 317 319 320 322 326 328 322 320 318 316 316 315 317
306 308 312 307 312 311 312 311 311 309 309 310 310 310 310 310 310 313 314 313 312 311 313 316 316 314 316 313 313 315 314 312 316 318 318 319 321 325 320 318 318 317 316 315 316
307 309 309 309 311 307 312 309 309 310 308 309 309 309 309 310 311 310 312 310 308 309 311 314 316 316 315 309 309 310 312 314 316 316 318 318 318 313 312 312 312 312 312 312 313
309 309 309 310 311 310 309 309 309 310 309 308 309 309 309 310 310 309 310 308 308 309 310 310 310 311 311 308 308 310 310 310 310 311 315 317 318 310 311 312 312 312 312 312 312
309 311 309 308 306 308 309 310 310 308 307 306 308 307 308 309 309 309 310 309 309 310 309 308 310 311 312 311 308 309 309 308 309 310 311 310 311 310 311 312 312 312 311 311 310
308 308 307 310 309 307 306 307 308 309 306 306 307 308 308 309 309 310 309 310 309 309 308 309 310 308 307 307 309 309 309 308 309 309 309 308 308 308 311 311 309 310 309 310 310
308 308 306 306 305 307 305 306 306 306 306 307 308 306 308 309 309 308 308 309 310 309 309 308 311 309 309 309 309 309 309 308 308 308 308 307 308 310 310 309 309 309 309 308 309
306 306 306 304 305 307 307 306 306 305 305 305 305 306 306 306 306 306 306 306 306 307 309 310 311 310 310 308 308 307 307 308 307 308 308 308 309 310 310 310 309 309 308 308 308

GFSSW_850_thetae_276.txt.gz
Theta_e
315 315 316 315 314 312 311 309 309 310 310 310 310 310 311 311 311 311 313 314 312 311 312 313 316 318 317 319 320 320 322 322 323 322 323 323 323 323 323 324 325 332 340 348 352
314 315 315 315 316 316 314 311 309 309 310 310 311 311 311 311 311 313 313 312 312 311 317 317 317 317 317 318 320 321 322 322 323 322 322 322 323 323 323 323 325 330 333 344 351
313 313 314 314 315 316 316 316 312 310 309 309 310 310 310 310 314 316 314 312 312 311 316 316 316 317 318 318 319 321 322 322 321 320 321 322 322 322 322 324 325 328 326 336 346
310 312 312 313 314 314 315 316 316 313 311 309 309 310 310 310 318 318 316 314 316 312 315 314 315 316 317 318 319 321 321 321 321 321 321 322 321 322 322 323 325 324 323 323 340
308 309 310 312 313 313 314 315 316 316 313 310 309 309 311 317 315 316 317 315 312 312 313 315 315 316 318 318 318 320 320 320 320 321 319 319 320 321 322 322 323 323 323 325 326
308 307 308 309 311 312 313 315 316 316 315 311 309 309 312 316 314 311 316 314 314 314 314 316 317 316 317 317 318 318 318 318 319 319 319 320 320 321 322 322 322 323 324 328 338
308 307 307 308 309 310 313 315 316 316 314 311 310 309 313 315 313 311 311 316 315 316 317 316 315 315 317 318 318 319 320 320 321 320 321 320 321 322 321 322 323 324 324 324 334
308 307 307 310 311 311 313 316 315 313 312 310 309 309 314 314 313 312 316 316 315 316 315 315 314 315 317 319 319 320 320 321 322 320 320 320 321 323 322 322 322 323 324 323 324
308 307 310 313 314 314 315 314 314 314 315 313 312 314 318 315 314 314 318 317 316 316 314 314 314 317 318 320 321 321 321 321 321 320 321 321 321 323 321 322 322 323 324 323 323
307 308 312 314 315 314 313 314 313 314 315 315 315 319 318 318 319 317 315 317 316 316 316 317 316 319 320 320 321 321 321 320 320 320 320 321 321 322 321 321 322 323 323 323 325
307 310 312 315 313 313 313 314 317 319 317 317 316 316 316 316 316 317 317 318 317 318 321 319 320 320 320 320 320 320 319 320 320 320 319 320 320 321 321 321 322 322 323 327 328
307 311 312 312 313 312 314 314 313 312 315 315 314 315 315 315 316 317 318 317 319 321 320 320 320 320 320 319 320 320 320 320 319 319 319 321 321 321 322 322 324 326 327 328 329
307 311 312 312 312 312 313 312 312 311 316 316 315 315 315 316 316 317 318 319 319 321 321 321 320 320 319 319 319 320 319 319 319 321 321 321 322 322 323 325 326 327 328 330 331
307 310 313 313 314 314 315 314 312 312 320 318 317 316 316 317 318 316 316 318 322 321 321 322 321 319 319 319 320 320 319 319 320 321 321 322 320 323 324 326 328 327 329 331 333
306 309 313 314 314 315 314 313 312 313 321 317 317 315 316 317 317 318 316 317 320 322 322 321 320 320 320 320 320 320 320 320 321 322 322 323 322 324 324 325 329 330 331 332 333
306 308 312 314 315 314 315 313 313 320 320 317 315 316 317 317 317 317 317 317 318 321 321 321 319 319 320 320 320 320 320 321 322 322 323 323 323 322 324 329 330 331 331 331 332
306 307 312 313 313 312 315 315 319 318 316 315 314 315 316 317 318 317 317 318 320 321 322 321 320 317 316 320 320 321 322 324 324 322 322 323 323 324 329 329 330 331 330 330 328
306 307 312 314 309 312 314 318 318 316 315 313 314 316 316 316 317 318 318 317 317 319 322 323 320 317 315 317 320 321 323 324 325 325 323 323 322 329 327 328 328 328 327 325 324
306 310 315 311 308 312 316 318 317 314 313 313 315 316 316 316 316 318 318 317 316 318 320 321 320 314 313 315 316 320 320 319 323 323 324 324 329 328 327 327 326 327 322 321 321
306 312 314 307 311 314 318 315 315 312 312 314 315 314 316 316 316 317 318 316 315 315 317 318 320 314 314 313 315 316 317 321 320 324 327 324 325 326 329 327 324 322 321 320 318
308 312 311 307 313 315 316 316 314 311 311 313 314 314 315 314 314 315 317 316 314 315 316 318 321 319 316 317 318 318 317 318 320 322 325 326 327 328 325 323 322 320 317 318 318
311 313 309 312 313 313 313 313 311 313 312 312 313 313 314 314 315 315 315 314 311 312 315 318 320 322 321 316 314 316 319 320 322 321 320 321 323 322 318 316 315 315 315 315 315
311 312 311 311 313 313 313 312 312 312 312 312 312 312 312 313 314 312 312 311 311 312 315 315 317 319 317 314 313 315 316 316 318 320 322 322 320 315 314 314 314 314 314 314 313
311 314 312 311 311 313 313 313 313 311 310 310 311 310 312 313 312 313 312 311 310 311 309 310 314 315 317 316 314 313 313 313 315 318 319 319 318 317 314 314 313 314 314 314 314
310 313 310 313 313 312 312 311 311 312 310 310 312 311 312 313 313 313 312 312 311 310 311 312 313 313 312 311 311 311 311 312 312 313 314 314 313 312 312 313 313 312 312 312 312
311 311 310 311 311 311 309 312 311 310 310 311 311 310 310 312 312 312 311 312 313 312 312 313 314 313 312 311 311 311 311 311 311 311 311 311 310 311 312 312 312 312 312 312 311
307 308 309 309 311 311 312 311 310 309 309 308 308 309 310 310 308 309 309 309 311 312 313 314 313 313 312 312 311 312 311 311 311 311 309 310 311 313 312 312 312 312 311 311 310

GFSSW_850_thetae_279.txt.gz
Theta_e
313 314 314 315 315 316 316 315 311 309 309 310 311 310 311 311 311 311 315 318 318 314 312 317 318 320 320 321 322 322 324 325 325 326 326 326 326 325 326 327 328 329 336 347 354
310 311 312 313 314 314 315 316 316 312 310 309 310 310 311 311 311 317 318 316 314 312 314 318 318 319 320 320 322 323 324 324 326 326 325 325 325 325 325 326 328 329 336 344 351
308 308 309 311 312 313 314 315 316 316 313 310 309 310 310 310 318 321 319 317 312 312 319 319 319 320 320 320 321 323 324 325 325 324 323 324 325 324 325 325 327 330 331 335 348
308 308 307 308 309 312 313 314 315 316 316 313 310 309 310 311 325 324 315 313 312 312 320 319 319 320 321 322 321 323 323 324 324 323 323 324 323 324 324 325 325 328 328 328 340
308 308 307 307 308 309 311 312 314 316 316 316 310 309 310 321 320 319 317 315 315 315 318 318 318 320 321 321 322 322 323 323 323 322 323 322 323 323 323 323 323 325 326 327 329
308 307 307 308 310 310 309 312 313 316 316 316 311 309 310 319 316 321 316 316 316 317 316 317 318 319 320 321 321 322 322 322 322 321 322 322 322 321 322 323 323 324 325 327 332
308 307 308 310 312 312 311 313 315 316 315 313 310 309 317 318 318 319 320 318 317 316 316 316 319 318 319 320 320 320 321 323 322 322 323 322 322 322 323 323 324 324 325 326 331
307 307 311 313 314 314 314 315 314 314 314 311 310 310 320 318 317 318 319 319 318 317 318 319 318 318 318 320 321 321 322 322 324 323 322 322 323 324 322 323 324 324 325 326 326
307 309 313 315 314 314 313 314 314 314 315 314 317 319 322 318 317 317 319 317 317 317 318 317 317 318 319 321 323 323 322 323 324 324 323 322 323 324 324 324 324 324 324 325 326
307 311 313 313 313 313 314 314 316 315 318 319 320 321 321 321 321 318 318 319 318 319 318 317 317 320 321 323 322 323 325 324 324 324 322 323 323 324 324 324 324 324 324 325 326
307 311 312 312 313 313 317 319 320 325 319 318 319 319 319 318 319 320 317 319 318 319 320 320 319 320 321 323 323 323 323 324 324 323 322 323 323 324 323 323 324 324 324 324 328
306 309 313 313 313 314 317 317 316 316 319 318 317 318 317 317 319 319 319 318 319 321 321 323 323 323 323 323 322 322 322 323 323 323 322 322 322 323 324 324 323 324 325 327 330
306 307 312 314 316 317 318 317 316 316 320 319 318 318 318 318 319 319 319 320 320 322 322 323 324 324 322 322 321 322 323 323 323 323 322 322 322 324 324 324 325 327 329 330 332
306 307 311 315 317 318 318 316 315 315 324 321 320 319 319 319 320 318 319 320 322 322 322 323 323 323 322 322 322 322 322 322 321 322 323 324 322 324 325 325 327 327 328 330 333
306 306 309 314 316 318 316 316 315 316 328 320 319 317 318 320 319 320 318 319 322 323 324 324 323 324 323 322 322 322 323 323 322 322 324 324 324 326 325 327 328 329 332 332 334
306 306 307 317 318 316 315 317 316 324 325 320 318 319 320 319 320 320 319 319 320 322 323 324 323 324 323 323 322 322 322 323 323 324 325 325 325 326 327 327 330 332 332 332 332
306 307 308 313 316 313 315 318 323 324 319 319 318 318 319 319 320 320 321 322 322 323 323 324 323 322 320 321 322 322 323 325 325 325 325 325 326 325 332 331 332 333 332 331 330
306 308 314 316 313 313 315 323 324 320 318 317 317 318 318 318 320 319 321 321 321 321 323 324 325 323 321 321 322 322 323 324 326 326 326 327 325 331 333 332 332 332 329 327 330
307 315 318 314 312 314 318 324 322 318 316 316 317 318 320 318 318 319 320 321 320 320 323 324 324 322 318 319 320 321 322 323 325 326 327 328 332 331 331 331 330 330 327 325 325
307 316 318 312 313 317 322 316 319 316 315 316 317 317 318 318 318 319 319 320 319 318 319 323 323 320 318 317 319 320 321 324 323 324 325 326 327 331 332 330 330 327 325 324 323
314 317 316 312 317 319 321 320 316 314 314 316 317 317 317 317 317 317 318 319 317 317 318 320 323 323 320 320 320 320 321 322 323 325 327 328 328 330 330 327 326 324 322 321 322
316 318 314 315 319 317 318 316 313 315 314 315 315 316 317 317 317 318 317 318 314 315 317 319 322 324 323 322 322 321 322 322 326 326 326 325 325 326 326 322 320 320 319 318 317
314 316 315 314 319 318 317 315 314 315 315 315 315 315 316 316 316 316 316 314 312 314 317 318 320 322 321 322 320 319 321 321 321 323 326 328 326 321 319 319 318 318 318 317 316
315 318 316 316 315 317 317 318 316 313 313 312 314 314 315 316 316 316 316 314 312 312 310 311 316 319 321 321 320 318 317 317 319 321 323 322 323 320 319 318 317 317 317 316 315
315 317 313 318 317 315 315 316 315 315 313 313 315 315 315 316 316 316 316 315 314 313 312 314 316 316 316 316 315 314 315 316 316 317 319 320 318 320 320 318 315 315 314 314 314
312 313 314 314 314 315 313 317 314 314 313 315 315 315 314 315 315 316 315 315 315 315 315 315 317 316 316 315 314 313 314 314 314 314 314 315 315 315 313 313 313 313 313 313 313
311 312 311 313 315 316 317 315 314 312 313 312 312 313 313 314 312 311 311 312 313 315 315 316 316 317 318 315 315 314 314 313 314 314 314 314 313 315 314 313 313 313 313 313 313

GFSSW_850_thetae_282.txt.gz
Theta_e
309 309 309 311 312 313 314 315 316 315 311 309 310 311 311 311 311 311 312 316 318 318 315 316 317 321 322 322 323 323 323 324 325 326 327 327 327 326 326 329 329 330 343 340 337
309 308 308 308 308 311 313 314 315 316 316 312 309 310 310 310 311 312 314 317 318 318 314 318 319 319 321 321 322 324 324 324 326 327 326 327 326 326 326 326 327 329 343 348 342
309 308 308 307 307 308 310 312 313 315 316 316 312 309 310 310 315 323 322 320 317 314 314 319 320 320 321 322 322 323 323 325 325 325 325 325 325 325 326 326 326 329 340 346 350
310 308 307 307 308 308 309 309 311 314 315 316 316 311 309 310 326 323 317 315 316 314 314 320 320 321 322 323 322 323 323 324 325 324 324 324 324 325 325 325 325 326 331 339 344
308 307 307 308 309 310 310 309 310 313 315 316 316 311 309 321 321 322 320 316 313 312 317 322 320 321 322 322 322 323 323 323 324 324 324 324 324 324 324 324 324 324 326 328 329
307 307 308 311 313 313 312 311 312 314 316 316 316 311 309 318 319 321 319 316 316 315 319 320 320 320 321 322 322 323 323 323 323 323 323 323 324 323 323 323 323 324 324 326 327
307 307 312 314 314 314 314 314 315 315 315 315 313 310 318 320 319 320 321 320 319 317 319 318 319 319 320 321 321 321 322 323 323 323 323 322 323 323 323 323 323 324 324 325 327
307 308 313 313 313 313 313 314 314 315 314 313 311 310 320 320 319 318 320 320 318 318 317 318 319 319 321 320 321 322 323 321 323 324 323 323 322 324 324 323 324 325 324 325 327
306 309 313 313 314 314 316 315 315 315 315 315 321 319 325 320 320 318 319 320 320 319 318 320 319 320 320 320 320 321 323 323 323 325 324 324 323 324 324 324 324 324 325 325 326
306 307 312 313 314 316 317 319 319 318 321 320 323 323 324 322 323 320 319 319 319 318 319 319 318 320 320 320 320 322 324 324 325 326 324 324 324 324 324 325 325 325 325 325 331
306 307 311 313 314 317 318 320 321 328 326 322 320 320 321 320 320 321 318 320 320 320 321 320 320 319 320 321 321 323 324 324 325 326 325 324 324 324 324 325 325 325 324 325 334
306 307 309 313 317 318 319 319 318 317 319 321 319 320 319 319 319 320 320 320 321 321 321 321 322 322 322 322 323 323 323 324 324 325 324 323 323 324 325 325 324 324 324 325 331
306 307 307 314 318 319 320 318 318 318 321 322 319 319 320 320 321 321 320 321 321 322 322 323 323 324 324 324 324 323 323 324 323 324 325 324 323 323 324 323 324 325 330 329 331
306 307 307 312 319 320 320 318 318 318 324 322 321 320 320 320 321 320 320 321 322 323 323 323 323 323 324 323 323 323 323 323 323 323 323 324 323 326 325 325 325 327 329 330 332
306 307 307 312 316 320 316 317 317 319 331 322 321 318 320 320 320 321 321 320 321 322 324 324 324 324 324 324 324 323 323 323 323 323 323 323 323 324 327 326 327 327 327 330 333
307 307 307 318 318 319 314 316 320 326 328 321 320 319 320 321 321 320 321 321 320 322 322 323 322 324 325 325 324 324 323 323 323 324 324 324 324 325 326 328 328 328 331 332 334
307 307 308 311 319 315 315 318 325 328 322 321 320 319 319 319 321 321 321 322 322 323 324 324 323 323 324 325 324 323 323 324 325 326 325 324 325 327 330 328 329 332 332 332 332
307 308 312 317 318 314 316 322 328 324 321 319 318 318 319 320 320 321 321 321 322 322 322 322 323 323 322 324 323 323 324 324 326 327 325 327 329 333 334 332 333 333 332 331 331
307 312 319 320 314 315 318 327 325 320 318 317 318 320 321 320 320 320 320 320 322 321 322 323 324 324 323 322 321 322 323 323 326 326 326 327 331 333 333 334 333 331 329 330 330
307 318 320 318 315 317 324 326 321 318 317 317 318 319 319 320 319 319 319 320 321 320 320 321 322 322 323 322 320 320 321 322 325 328 327 327 331 334 328 330 326 323 327 325 324
314 320 318 315 319 321 325 322 320 317 315 316 318 318 318 319 319 319 318 319 319 318 318 319 320 321 323 321 321 322 321 321 322 328 328 327 327 329 329 328 324 322 320 321 323
317 321 317 315 320 321 321 318 314 316 316 317 317 317 318 318 318 319 319 318 315 315 317 318 319 323 323 323 323 324 324 324 325 325 328 329 329 328 327 324 322 321 320 318 317
315 319 319 317 321 321 320 318 316 316 317 316 317 317 317 317 318 318 318 316 315 314 316 316 320 322 321 319 322 323 322 323 323 326 326 329 330 324 323 322 321 320 319 319 318
317 321 319 318 318 319 320 319 319 316 315 315 315 315 316 317 318 318 317 317 315 314 312 313 316 318 319 320 320 321 320 319 319 324 322 321 322 324 322 321 319 318 318 318 316
319 319 318 318 320 318 318 318 318 317 316 315 316 316 317 317 318 317 317 317 316 316 314 315 316 316 317 317 318 320 317 316 317 318 318 318 320 321 320 321 320 318 317 315 314
316 315 314 314 317 318 315 318 318 317 315 316 317 317 316 316 316 316 316 316 316 316 316 318 318 317 318 317 316 317 315 315 315 316 316 316 317 318 317 318 316 315 314 314 314
314 314 315 316 317 319 319 319 317 315 315 315 314 314 315 315 314 314 313 313 313 315 316 316 318 319 319 317 318 317 315 315 315 314 315 315 316 315 315 314 314 314 314 314 314

GFSSW_850_thetae_285.txt.gz
Theta_e
310 309 308 308 308 308 310 312 314 315 316 316 312 310 310 311 311 311 312 313 316 318 318 315 317 314 320 322 322 322 316 315 317 319 319 324 321 326 326 328 329 338 338 335 339
311 310 308 308 307 308 308 309 312 313 315 316 316 312 309 310 311 312 317 315 315 317 317 315 318 319 320 321 321 320 316 318 319 320 320 322 323 325 325 325 327 340 339 337 340
307 307 307 307 308 308 309 309 309 311 313 315 316 316 311 310 312 324 320 317 318 317 315 314 318 319 319 320 321 320 317 319 321 323 324 323 323 324 324 323 325 338 341 336 337
307 307 307 309 310 311 311 310 309 309 312 314 316 316 312 310 324 321 320 320 315 319 317 315 317 319 318 316 321 318 320 321 322 323 323 322 323 322 323 324 324 332 342 350 351
306 307 310 313 313 313 313 312 310 311 312 315 316 316 311 315 317 323 320 318 315 314 315 317 320 321 317 319 320 318 318 322 323 323 323 323 322 322 323 323 324 324 342 347 350
306 307 312 313 313 313 313 314 313 314 315 315 316 315 311 316 320 320 320 319 316 314 313 318 321 321 320 318 317 320 320 320 321 322 322 321 321 323 323 323 322 323 323 331 337
306 307 312 313 314 314 314 314 314 314 314 314 314 312 313 316 320 320 319 321 318 318 318 320 319 318 318 317 321 320 316 317 319 321 320 322 319 319 322 322 322 322 323 324 325
306 307 310 313 314 315 316 317 315 315 315 313 312 310 314 320 320 319 319 321 320 318 318 318 318 320 318 319 319 316 316 316 317 319 320 320 317 320 322 323 323 323 323 324 330
306 307 308 313 315 317 317 319 317 317 315 314 322 322 324 322 321 321 318 320 321 319 319 318 319 319 320 317 315 316 315 316 319 320 319 318 317 319 322 323 323 323 324 324 334
307 307 307 311 315 318 319 320 320 321 323 322 323 324 324 321 322 321 319 320 319 320 319 318 319 315 314 315 314 315 316 316 319 321 320 318 318 320 323 323 322 324 324 329 336
307 307 307 312 317 319 319 319 319 326 319 326 323 322 320 320 320 321 319 320 321 319 318 319 316 315 315 315 316 317 317 318 320 322 321 318 320 320 322 323 324 324 324 334 335
307 307 308 313 319 319 320 318 318 318 318 320 321 319 320 319 320 320 320 319 320 319 319 318 317 318 319 319 318 318 318 319 320 321 322 321 321 321 321 322 323 324 324 334 335
306 308 308 309 319 321 321 318 318 318 318 321 320 319 320 320 321 321 320 320 319 319 319 318 319 321 321 320 322 321 320 320 321 321 321 320 320 321 322 323 323 327 325 334 335
306 307 308 309 319 320 316 316 318 317 319 323 320 320 319 320 320 321 321 321 321 320 320 320 321 322 321 321 321 320 322 322 321 320 319 321 319 319 320 319 319 329 332 334 337
307 307 308 308 317 321 317 315 317 318 330 322 320 319 319 320 320 321 320 320 320 320 320 320 321 321 322 322 322 322 321 320 321 320 320 320 318 318 320 321 319 326 330 335 341
307 307 308 309 317 318 315 315 319 323 329 320 320 319 318 319 320 321 321 321 321 319 319 319 321 320 320 321 322 323 323 322 320 318 319 320 319 319 319 322 323 326 334 338 338
307 307 309 309 315 316 315 318 322 327 323 321 320 319 318 318 319 320 320 320 318 319 319 320 320 322 323 322 321 322 322 323 322 319 320 320 321 324 328 325 325 328 334 335 335
307 308 313 317 315 315 316 319 327 324 320 319 318 317 317 318 319 320 320 318 319 320 320 321 323 321 320 323 322 322 319 322 323 323 324 323 328 336 328 323 325 324 331 329 328
307 315 318 321 315 315 316 323 324 320 317 317 317 319 321 320 320 319 318 319 320 319 320 320 321 320 320 321 322 323 322 320 320 323 324 323 326 333 328 326 323 322 320 324 325
308 320 321 318 315 318 320 324 322 317 317 316 317 319 320 318 318 317 318 319 320 318 317 318 319 318 318 322 321 321 320 323 322 325 325 324 332 333 332 326 325 322 321 319 320
311 321 318 319 316 319 323 323 320 317 316 317 317 317 317 318 318 318 318 318 316 316 315 316 318 318 319 322 321 325 325 323 321 326 329 327 332 330 329 326 325 323 321 318 318
316 321 318 318 319 322 320 318 316 317 316 317 317 318 318 318 318 318 318 318 315 315 315 317 317 318 318 317 321 324 323 324 325 325 327 326 330 327 326 324 322 321 322 321 319
315 318 319 318 320 318 320 320 317 317 317 316 316 317 317 317 317 318 318 317 315 315 315 313 313 316 318 318 319 320 319 321 320 322 323 325 327 322 323 324 322 321 319 319 319
317 320 320 317 319 319 318 319 319 316 316 315 315 316 316 317 317 318 318 318 315 315 313 313 314 315 315 316 319 320 320 319 319 321 322 321 324 323 321 320 321 321 320 319 318
319 319 315 318 315 317 318 318 318 318 316 316 316 317 317 318 317 316 316 316 316 314 315 313 314 316 315 316 316 317 318 320 319 317 315 317 320 322 320 319 319 318 318 317 316
315 315 315 316 316 319 318 319 319 318 316 316 316 316 315 316 316 316 315 315 315 314 314 316 316 317 318 317 317 318 317 318 318 314 314 315 316 316 319 320 318 317 317 315 315
313 313 313 315 316 317 318 318 318 316 315 315 315 313 314 315 314 314 313 313 314 312 312 314 314 315 316 317 317 318 317 315 314 313 313 313 314 314 314 315 313 315 315 314 314

GFSSW_850_thetae_288.txt.gz
Theta_e
307 307 308 308 308 308 308 309 309 312 314 315 316 315 312 310 311 311 313 313 313 314 315 316 315 315 316 321 322 321 314 313 314 318 318 321 318 324 325 336 338 343 347 343 348
306 306 307 308 309 309 308 309 309 310 312 314 315 316 315 312 311 315 320 318 314 316 316 316 316 318 319 320 321 317 312 315 315 318 318 319 320 321 322 324 341 341 342 348 348
306 306 308 312 313 312 312 311 309 309 310 313 315 316 316 313 313 323 320 320 317 316 316 315 315 314 318 318 319 317 315 315 318 320 321 321 321 323 321 320 326 337 335 335 340
306 306 310 313 313 312 313 312 311 309 310 312 314 316 316 313 316 318 320 320 315 318 316 314 315 316 316 316 318 317 318 318 319 320 320 318 321 322 322 322 323 333 335 334 343
306 306 310 313 313 313 313 313 313 312 313 314 315 316 315 313 316 321 319 320 318 314 317 315 316 318 316 316 317 316 316 319 320 319 319 319 320 320 322 323 323 328 338 338 339
306 306 308 313 313 314 314 314 314 314 314 315 315 316 313 313 320 321 319 320 317 314 313 315 321 320 319 316 315 317 317 317 318 319 319 318 320 321 322 323 323 321 337 341 341
306 306 307 312 314 315 316 317 315 314 314 313 314 314 313 316 320 320 319 320 320 317 315 316 319 318 318 314 317 318 315 314 316 318 317 320 316 319 322 322 322 322 321 324 341
307 307 307 311 315 316 317 319 315 317 314 313 312 313 314 320 320 320 319 319 321 318 318 318 317 319 319 319 317 315 313 313 313 316 318 317 315 316 321 322 322 322 322 323 334
307 307 307 311 316 318 318 319 319 318 321 317 323 323 323 322 321 322 320 319 320 320 318 318 318 318 319 314 313 311 313 314 314 317 316 317 316 315 321 321 321 322 322 335 346
307 307 308 313 318 318 318 318 318 322 318 324 321 322 322 320 322 320 319 319 320 320 319 318 318 312 310 311 314 314 314 313 314 315 317 316 315 318 321 320 321 322 326 334 336
306 307 308 315 318 320 319 318 317 319 317 317 319 322 322 319 319 320 319 320 320 319 316 318 314 314 314 313 314 314 315 314 315 316 319 318 317 316 320 320 321 320 336 336 337
306 307 308 310 319 320 320 317 317 317 317 319 320 320 320 320 319 320 320 319 319 318 317 315 315 316 315 316 315 315 314 314 315 317 319 318 318 318 318 320 322 330 335 338 341
307 307 308 310 319 319 315 315 318 317 316 319 321 319 319 319 319 319 320 319 318 317 318 316 317 318 318 317 318 318 318 318 318 320 319 319 317 318 318 320 321 324 334 336 342
307 307 308 310 318 318 315 314 315 318 317 322 319 319 319 319 319 320 320 320 319 319 318 317 318 319 319 319 319 318 318 320 321 319 318 318 318 317 319 316 320 325 334 338 343
307 307 308 308 315 319 315 314 315 318 324 322 318 319 319 318 319 320 321 320 319 318 318 317 318 317 319 319 319 319 319 319 320 318 319 318 316 315 317 320 325 326 332 340 342
308 307 308 309 314 316 314 316 318 322 328 319 318 317 316 317 318 320 320 320 320 318 318 316 319 319 320 321 321 320 319 319 318 314 318 317 316 319 327 326 325 325 338 337 336
309 308 308 310 316 315 315 319 320 325 322 319 317 317 315 316 317 319 318 316 315 317 318 318 319 320 319 318 319 317 317 320 320 319 320 318 317 330 325 323 322 324 325 334 334
309 310 311 314 314 314 317 317 324 322 317 317 316 316 316 316 318 318 317 316 317 317 317 318 319 317 317 320 321 320 318 321 326 322 323 320 327 331 324 323 321 320 321 326 329
310 319 319 317 315 315 317 319 321 317 316 316 316 317 318 317 317 316 315 317 316 315 318 316 318 317 317 320 320 320 321 320 323 324 323 320 331 328 325 325 322 320 320 319 319
312 320 319 316 316 319 317 320 316 316 316 316 316 317 316 316 317 316 316 316 317 314 315 316 315 317 317 319 319 320 319 322 319 325 329 324 326 330 328 326 323 320 319 319 318
315 320 318 318 316 318 318 320 317 316 316 315 316 316 316 317 317 316 317 316 315 314 315 314 315 315 315 317 319 320 323 323 320 322 327 328 326 329 327 324 323 320 319 317 318
317 316 319 318 316 317 315 316 316 316 316 316 315 316 316 316 316 316 317 317 314 314 315 313 312 314 315 320 321 319 320 320 323 324 322 326 326 324 323 322 322 321 317 318 318
317 318 320 318 314 313 315 317 317 316 315 315 314 314 314 314 314 316 316 317 314 314 313 311 309 310 312 312 315 319 320 321 319 318 321 324 325 321 323 322 322 322 320 319 320
317 315 317 317 314 314 315 315 316 317 315 315 314 315 314 315 314 316 315 317 315 315 313 312 309 310 312 313 313 316 317 320 318 320 321 321 320 323 322 323 320 320 320 320 321
316 313 314 311 313 313 313 316 317 317 315 314 314 315 314 315 315 315 314 314 314 314 313 309 311 313 315 317 316 316 317 316 318 317 318 317 321 321 321 320 321 320 319 318 318
314 313 313 313 315 313 313 316 317 316 314 314 314 314 312 314 314 314 313 313 313 312 311 309 313 316 316 316 315 315 314 316 316 318 316 314 320 317 319 319 320 320 318 318 313
309 312 313 312 312 312 313 315 316 314 314 313 313 312 312 313 312 313 313 313 312 312 310 310 310 310 312 314 314 313 315 315 313 315 312 312 313 312 312 313 314 314 314 313 312

GFSSW_850_thetae_291.txt.gz
Theta_e
306 306 307 309 311 310 310 309 309 309 311 314 315 316 316 315 312 312 315 316 313 314 312 314 315 315 315 321 321 320 313 313 316 317 316 319 316 321 328 347 347 347 345 342 343
306 306 309 312 312 312 312 311 310 309 309 312 314 315 316 316 314 319 318 317 315 315 316 316 316 317 318 319 319 315 311 315 314 316 317 318 318 320 321 332 340 341 344 344 346
306 306 309 312 313 313 313 312 311 310 309 310 313 315 316 316 314 321 320 319 316 315 316 315 316 316 317 317 317 314 314 313 316 318 318 318 318 320 320 320 322 334 346 345 344
306 306 307 312 313 313 313 313 312 311 311 311 313 315 316 315 317 319 319 319 316 316 314 314 315 315 314 316 316 316 316 316 317 319 317 316 318 319 320 322 322 324 335 347 348
306 306 307 312 313 314 315 316 314 314 314 314 315 315 316 314 316 320 319 319 317 315 317 315 315 317 316 315 316 315 315 317 317 318 317 317 317 317 320 322 322 322 334 346 347
306 306 307 311 314 315 316 317 315 314 314 314 315 316 315 313 321 320 319 320 318 314 315 315 318 319 318 315 314 315 315 315 317 318 318 316 317 318 321 322 322 322 322 336 341
306 307 307 310 315 316 317 318 315 316 314 313 314 314 314 316 320 320 319 319 320 318 314 315 319 318 317 314 315 316 315 312 315 316 315 316 315 316 320 320 321 321 322 330 338
307 307 307 312 317 318 318 318 319 319 316 315 318 317 316 320 320 320 320 318 320 319 318 317 317 317 318 318 316 314 311 312 313 314 317 317 314 315 322 319 320 321 320 321 331
307 307 308 315 318 318 318 318 319 319 317 321 322 322 323 322 321 321 320 318 318 320 319 318 318 317 316 313 312 310 313 313 313 314 316 317 315 316 320 319 319 321 319 321 321
307 307 308 315 319 319 318 318 320 323 317 319 323 320 321 320 321 319 319 319 320 319 318 318 317 312 309 310 313 315 314 313 313 314 313 313 313 314 319 317 317 318 321 327 330
307 307 308 315 319 320 317 317 317 317 317 317 318 318 319 319 321 319 319 320 320 318 315 316 313 313 313 312 313 314 314 313 314 315 315 314 314 316 317 316 315 318 333 341 341
309 307 308 309 319 316 315 317 317 316 316 318 319 319 319 319 319 319 319 319 319 317 317 314 315 315 315 315 314 314 314 314 314 314 313 316 316 316 317 318 318 322 335 343 344
308 308 308 309 319 315 314 314 316 317 315 319 320 320 319 319 319 319 319 319 317 317 317 316 317 317 317 317 318 316 316 316 316 317 317 317 315 316 316 321 324 332 334 338 340
308 308 308 309 317 317 316 314 314 316 317 322 320 319 318 319 319 320 319 320 318 318 317 316 316 318 316 318 317 318 317 317 318 317 317 317 318 315 316 321 324 324 331 339 339
309 308 308 308 311 318 316 314 315 318 319 322 318 318 318 317 317 320 320 319 318 318 316 317 317 316 317 319 320 319 319 318 319 317 316 316 315 315 324 325 324 325 336 340 345
310 308 308 309 312 316 316 317 318 321 323 318 317 316 316 316 317 319 319 319 318 317 316 316 317 317 319 318 319 318 318 316 314 313 317 316 315 314 326 325 324 324 333 334 338
311 309 310 312 317 315 314 319 319 322 318 316 316 315 314 315 316 317 316 314 316 317 316 316 317 317 317 318 317 315 316 318 319 318 319 319 318 325 325 322 322 323 324 330 332
311 316 315 315 315 314 318 317 324 318 316 315 315 316 316 315 316 316 316 316 314 315 315 317 317 316 316 318 318 317 317 317 322 322 321 319 325 328 323 321 320 321 320 322 327
318 317 317 315 317 319 319 318 319 315 315 315 315 316 316 316 316 315 315 316 314 314 316 315 316 315 316 316 317 317 318 318 319 320 322 320 327 326 325 322 320 320 319 318 317
319 319 317 316 315 317 316 320 315 315 315 314 316 315 315 315 316 315 316 315 314 314 314 315 314 315 315 316 317 319 318 320 316 319 321 322 322 327 329 323 320 319 319 318 315
317 319 317 318 316 318 317 319 315 316 315 315 315 315 315 315 315 315 316 315 314 313 313 313 313 312 312 314 317 317 320 319 316 320 325 322 322 326 326 324 320 319 317 317 317
318 314 318 317 316 312 312 314 316 315 316 315 313 315 315 314 314 315 316 315 314 313 314 311 310 311 313 313 318 318 320 318 315 316 320 320 320 321 324 323 321 320 320 322 319
315 318 317 317 312 312 313 315 316 315 314 314 314 314 313 314 314 314 315 315 315 313 312 310 308 310 311 309 310 316 319 319 315 315 319 323 319 321 321 323 322 319 318 318 320
315 311 315 315 313 312 313 315 316 316 315 314 313 313 313 314 313 314 314 315 314 315 313 310 307 310 312 312 311 314 315 318 316 316 316 318 319 318 321 320 321 320 318 317 319
313 311 312 309 310 312 312 314 316 316 314 314 313 313 314 314 313 314 313 313 314 312 312 307 310 310 310 312 315 315 314 315 318 317 318 317 317 317 318 319 321 321 320 319 320
312 313 312 311 311 311 311 314 315 316 314 314 313 313 311 311 312 313 313 312 312 311 310 308 311 314 315 314 314 313 312 312 313 314 315 316 316 315 316 319 321 319 320 320 319
306 309 311 310 309 311 312 313 315 312 313 313 312 311 311 312 313 313 313 313 312 310 308 308 308 308 310 312 312 310 312 313 314 315 315 311 312 313 317 320 320 319 318 318 313

GFSSW_850_thetae_297.txt.gz
Theta_e
306 306 306 311 312 312 313 312 311 310 310 310 311 313 315 316 316 315 316 316 313 314 314 314 314 315 315 320 320 318 321 320 320 319 321 320 319 320 323 340 345 347 345 343 342
306 306 306 310 312 313 314 314 312 311 310 309 310 313 315 316 317 319 318 315 313 312 313 314 314 315 318 319 319 320 321 320 318 319 320 319 318 318 321 340 346 334 334 339 343
306 306 306 309 313 314 315 316 315 312 311 310 310 313 315 315 319 318 319 316 314 313 314 314 315 316 317 317 317 316 321 319 319 318 317 319 320 317 320 323 324 323 329 336 343
306 306 307 308 313 315 316 317 314 313 313 312 312 314 316 315 320 318 319 317 315 315 315 315 316 316 317 318 315 319 317 317 318 316 316 318 317 319 319 322 321 320 324 331 341
306 306 307 310 314 316 317 317 315 315 314 314 314 315 315 316 318 319 319 315 316 315 313 315 316 317 319 317 316 318 317 316 317 316 315 315 318 319 319 319 319 320 321 329 331
307 307 307 312 315 317 317 317 317 314 313 314 315 315 315 318 319 318 319 317 314 315 314 316 317 318 317 316 317 316 316 316 315 316 316 317 318 316 319 319 320 320 320 326 329
309 307 307 314 316 317 317 317 319 318 319 314 314 315 316 319 319 319 318 319 317 313 317 317 317 317 316 317 315 315 318 317 316 316 317 315 320 319 320 319 320 321 321 320 326
312 307 307 314 316 317 317 317 318 317 319 321 318 317 317 320 320 319 319 318 319 317 317 317 317 317 317 315 316 316 316 318 318 316 316 319 320 321 319 318 320 321 320 318 320
310 308 307 310 317 318 317 316 318 319 317 322 320 320 321 321 320 319 318 318 319 319 317 317 317 315 316 317 318 318 318 319 320 317 317 319 322 322 321 319 320 320 319 319 319
308 308 307 308 316 319 316 316 321 317 317 320 318 318 319 319 320 318 319 318 319 317 317 317 316 319 318 320 320 320 320 320 320 320 320 320 321 322 320 320 324 326 324 319 318
309 309 308 308 316 317 315 316 316 317 317 317 317 318 319 319 319 318 319 319 318 318 319 316 320 321 319 318 318 318 318 320 321 319 318 322 321 323 321 326 328 330 333 327 332
311 309 308 308 315 315 314 315 314 316 317 318 318 318 319 319 319 318 319 318 319 320 318 319 320 318 317 317 318 318 320 322 321 319 319 322 322 323 322 326 331 335 339 340 338
311 310 309 308 315 315 314 314 314 315 317 318 319 319 318 319 318 318 318 318 319 319 319 320 319 317 320 321 322 320 322 321 321 321 321 321 321 322 320 327 330 333 336 338 342
311 309 309 309 315 316 315 316 315 314 321 320 320 319 318 318 318 318 318 319 318 319 318 318 317 319 321 320 321 322 317 319 320 321 321 320 320 322 324 326 327 329 332 335 339
313 309 308 308 313 317 316 315 315 317 322 319 318 317 317 316 315 318 317 318 319 319 319 318 319 320 321 318 319 318 317 318 318 320 320 320 320 320 324 325 326 328 329 331 335
313 313 311 311 316 315 315 316 317 324 321 318 316 316 316 316 317 317 318 318 316 318 319 318 317 318 318 319 317 315 317 316 318 319 319 323 322 321 329 327 327 326 326 325 330
315 316 316 316 317 317 314 317 324 326 317 317 316 316 317 317 318 318 318 319 320 319 319 319 318 317 316 317 315 317 317 314 315 319 319 321 320 323 327 325 324 324 324 321 324
316 317 317 316 315 316 318 321 323 316 316 315 316 317 318 317 317 317 318 319 317 318 319 319 319 317 315 315 315 319 319 312 313 316 316 319 315 321 324 323 323 323 321 321 319
317 317 317 317 316 316 319 323 319 316 315 316 316 318 317 317 317 317 318 318 316 316 319 318 318 316 316 319 318 318 320 320 322 321 322 320 322 325 325 325 323 322 321 318 318
318 319 317 317 317 319 321 319 316 314 315 315 318 316 318 317 317 317 317 316 315 314 315 317 318 315 314 317 319 319 320 321 323 322 322 319 322 320 327 327 324 323 321 318 317
316 317 317 317 317 318 320 318 317 315 314 316 316 316 317 316 316 317 316 315 314 315 315 316 316 314 314 319 318 319 320 323 322 324 325 322 320 324 325 326 325 322 320 319 317
313 320 314 316 317 313 318 315 315 315 314 315 315 316 317 315 316 316 317 316 314 314 315 313 316 316 315 315 319 318 318 320 318 320 322 321 319 318 323 324 324 321 320 319 318
312 313 312 315 315 314 314 315 315 317 316 315 315 315 314 316 316 315 316 315 314 314 315 315 315 316 316 317 315 318 318 319 320 320 321 320 318 322 321 324 323 321 320 318 317
312 315 312 310 311 314 315 315 317 316 314 313 314 314 315 315 315 316 316 315 314 316 313 313 317 317 317 315 315 316 316 318 319 319 317 318 317 317 317 318 319 321 319 319 318
311 312 310 313 311 312 312 314 316 317 315 313 315 315 316 317 316 316 315 315 314 314 313 315 316 315 314 314 314 315 315 315 319 317 317 315 315 314 316 316 316 318 321 320 319
310 310 308 309 308 311 311 315 316 315 315 315 315 314 314 316 316 315 315 315 315 314 314 313 316 315 315 315 315 315 315 316 315 315 315 315 315 315 315 314 317 317 319 322 320
310 309 309 307 310 312 313 314 314 312 314 312 312 313 314 314 313 313 313 313 314 315 315 315 315 315 314 312 313 314 313 313 313 313 314 315 316 315 316 315 319 320 320 321 321